weather.gov     
National Weather Service

Weather Roundup
NWS Homepage
This page is being discontinued on March 12, 2014.
The same data is available at this site. Please update your bookmarks.
Thank you, and we apologize for the inconvenience.
Please send an email to SR-SRH.Webmaster@noaa.gov with any concerns.


Current Version
Previous Version:    01  02  03  04  05  06  07  08  09  10  11  12  13  14  15  16  17  18  19  20  21  22  23  24  25  26  27  28  29  30  
   31  32  33  34  35  36  37  38  39  40  41  42  43  44  45  46  47  48  49  50  51  52  53  54  55  56  57  58  59  60  
[Printable]
581
NZUS93 KARX 291410
HRRWXR

CURRENT HOURLY OBSERVATIONS ACROSS
MUCH OF THE UPPER MISSISSIPPI VALLEY
NATIONAL WEATHER SERVICE LA CROSSE WI
800 AM CST THU JAN 29 2015


...SOUTHEAST MINNESOTA...


CITY           SKY/WX    TMP DP  RH WIND       PRES   REMARKS
ROCHESTER      MIX PCPN  32  29  88 NW23      30.03R WCI  19
ROCHESTER/MAYO CLOUDY    32  30  92 NW18G30   30.02R WCI  21
WINONA         CLOUDY    34  30  86 N12G20    30.01R WCI  25
AUSTIN         CLOUDY    30  27  86 NW20G30   30.06R WCI  18
ALBERT LEA     CLOUDY    28  28 100 NW16G25   30.09R WCI  17
DODGE CENTER   CLOUDY    30  30 100 NW21G28   30.04R FOG     WCI  17
PRESTON        CLOUDY    32  28  84 N22G29    30.01R WCI  19
OWATONNA       CLOUDY    30  27  86 NW22G29   30.09R FOG     WCI  17
FARIBAULT      CLOUDY    30  27  86 NW15G24   30.10R WCI  19
$$

...ELSEWHERE IN MINNESOTA...


CITY           SKY/WX    TMP DP  RH WIND       PRES   REMARKS
MINNEAPOLIS    CLOUDY    31  25  78 NW16G28   30.09R WCI  20
INTNL FALLS    CLOUDY    17  13  84 NW20      30.14R WCI   1
DULUTH         MOCLDY    26  18  71 NW21G31   30.01R WCI  12
RED WING       CLOUDY    34  27  75 NW12G21   30.05R WCI  25
REDWOOD FALLS  CLOUDY    28  23  81 NW22G37   30.23R WCI  14
MANKATO        CLOUDY   N/A N/A N/A NW25G35   30.14R
WORTHINGTON    CLOUDY    28  21  74 N21G29    30.23R WCI  15
FAIRMONT       CLOUDY    30  23  74 NW30G38   30.15R WCI  15
$$

...SOUTHWEST WISCONSIN...


CITY           SKY/WX    TMP DP  RH WIND       PRES   REMARKS
LA CROSSE      CLOUDY    34  29  82 NW14      29.98R WCI  25
PRAIRIE DU CHI CLOUDY    34  28  80 NW10G18   29.98R WCI  26
BOSCOBEL       CLOUDY    34  27  75 NW7       29.96R WCI  28
LONE ROCK      CLOUDY    32  26  78 NW12G23   29.94R WCI  23
PLATTEVILLE    CLOUDY    32  28  86 NW16      29.93R WCI  21
FORT MC COY    CLOUDY    32  30  92 NW10      29.97R FOG     WCI  24
CAMP DOUGLAS   CLOUDY    30  30 100 NW12G22   29.93R WCI  21
VIROQUA        CLOUDY    31  31 100 NW17      29.93R WCI  19
WIS DELLS      CLOUDY    30  26  86 NW12      29.90R FOG     WCI  20
$$

...ELSEWHERE IN WISCONSIN...


CITY           SKY/WX    TMP DP  RH WIND       PRES   REMARKS
MILWAUKEE      CLOUDY    33  25  72 NW16G24   29.80R HAZE    WCI  23
MADISON        CLOUDY    31  25  78 NW13G20   29.88R WCI  21
GREEN BAY      CLOUDY    30  25  81 NW15      29.83R HAZE    WCI  19
EAU CLAIRE     CLOUDY    32  25  75 NW17G25   29.99R WCI  21
BLACK RVR FLS  CLOUDY    32  31  96 NW7       29.96R FOG     WCI  26
MEDFORD        CLOUDY    28  25  88 NW16G23   29.90R WCI  17
WAUSAU         CLOUDY    29  25  85 NW14G21   29.87R WCI  18
WIS RAPIDS     CLOUDY    30  25  81 NW13      29.92R HAZE    WCI  20
MARSHFIELD     CLOUDY    30  26  85 NW15      29.91R FOG     WCI  19
RICE LAKE      CLOUDY    31  26  81 NW13G22   30.02R WCI  21
$$

...NORTHEAST IOWA...


CITY           SKY/WX    TMP DP  RH WIND       PRES   REMARKS
DECORAH        CLOUDY    32  32 100 N18G28    29.98R WCI  20
MASON CITY     CLOUDY    30  26  85 NW30      30.10R WCI  15
CHARLES CITY   CLOUDY    32  32 100 NW25      30.04R FOG     WCI  19
OELWEIN        MIX PCPN  34  32  93 NW21G26   30.01R WCI  22
$$

...ELSEWHERE IN IOWA...


CITY           SKY/WX    TMP DP  RH WIND       PRES   REMARKS
DES MOINES     DRIZZLE   35  30  82 N20G29    30.14R WCI  24
IOWA CITY      CLOUDY    35  31  85 NW13      30.03R WCI  26
FORT DODGE     CLOUDY    32  25  74 N18G29    30.16R WCI  20
$$

...NORTHERN ILLINOIS...


CITY           SKY/WX    TMP DP  RH WIND       PRES   REMARKS
CHICAGO-OHARE  CLOUDY    35  28  75 NW16      29.77R WCI  25
CHICAGO-MIDWAY CLOUDY    37  30  75 NW13      29.77R WCI  29
MOLINE         CLOUDY    35  29  78 NW16G23   29.95R WCI  25
ROCKFORD       CLOUDY    33  28  81 NW16      29.88R HAZE    WCI  23
PEORIA         CLOUDY    37  30  75 NW16G26   29.93R HAZE    WCI  28
$$

NOTE: "FAIR" INDICATES FEW OR NO CLOUDS BELOW 12,000 FEET WITH NO
SIGNIFICANT WEATHER AND/OR OBSTRUCTIONS TO VISIBILITY. WIND
SPEEDS ARE IN MILES-PER-HOUR.




U.S. Dept. of Commerce
NOAA National Weather Service
1325 East West Highway
Silver Spring, MD 20910
E-mail: w-nws.webmaster@noaa.gov
Page last modified: May 16, 2007
NATIONAL WEATHER SERVICE: for Safety, for Work, for Fun - FOR LIFE